Regional Weather Roundup
Issued by NWS

Home | Current Version | Previous Version | Text Only | Print | Product List | Glossary On
Versions: 1 2 3 4 5 6 7 8 9 10 11 12 13 14 15 16 17 18 19 20 21 22 23 24 25 26 27 28 29 30 31 32 33 34 35 36 37 38 39 40 41 42 43 44 45 46 47 48 49 50
000
ASUS43 KLSX 281410
RWRMO

WEATHER SUMMARY FOR MISSOURI
NATIONAL WEATHER SERVICE SPRINGFIELD MO
900 AM CDT SUN AUG 28 2016

NOTE: "FAIR" INDICATES FEW OR NO CLOUDS BELOW 12,000 FEET WITH NO
       SIGNIFICANT WEATHER AND/OR OBSTRUCTIONS TO VISIBILITY.
       CURRENT SKY AND/OR WEATHER CONDITIONS ARE NOT AVAILABLE FOR
       CHILLICOTHE AND FARMINGTON.

MOZ001>031-035>038-043-044-053-054-281500-
...NORTHERN AND WESTERN MISSOURI...

CITY           SKY/WX    TMP DP  RH WIND       PRES   REMARKS
KANSAS CTY INT MOSUNNY   78  71  79 S6        30.13R
KANSAS C DTWN  SUNNY     80  72  76 SW3       30.11R
LEE`S SUMMIT   CLOUDY    78  71  79 S6        30.14R
ST JOSEPH      MOSUNNY   77  72  84 S3        30.12R
KIRKSVILLE     SUNNY     77  73  87 S6        30.17R

$$
MOZ066>068-077>081-088>096-101>105-281500-
...SOUTHWEST MISSOURI...

CITY           SKY/WX    TMP DP  RH WIND       PRES   REMARKS
SPRINGFIELD    SUNNY     79  71  76 S6        30.16R
JOPLIN         CLOUDY    78  72  81 S10       30.15R
BRANSON        MOSUNNY   77  73  88 CALM      30.18R

$$
MOZ032>034-039>042-045>050-055>058-069>072-281500-
...CENTRAL MISSOURI...

CITY           SKY/WX    TMP DP  RH WIND       PRES   REMARKS
COLUMBIA       CLOUDY    78  74  87 SW3       30.17R
JEFFERSON CITY SUNNY     77  73  87 SE5       30.16R
ROLLA          SUNNY     78  72  81 S6        30.17R
SEDALIA        SUNNY     78  73  84 S5        30.16R
WHITEMAN AFB   MOSUNNY   76  76 100 S7        30.14R
OSAGE BEACH    SUNNY     76  72  87 S3        30.17R

$$
MOZ051-052-059>065-281500-
...EAST CENTRAL MISSOURI...

CITY           SKY/WX    TMP DP  RH WIND       PRES   REMARKS
ST LOUIS INTL  MOSUNNY   85  71  63 CALM      30.17R HX  90
SPIRIT OF STL  SUNNY     79  74  84 CALM      30.15R
ST CHARLES     SUNNY     79  76  90 SE3       30.15S

$$
MOZ072>076-082>087-097>100-106>115-281500-
...SOUTH CENTRAL AND SOUTHEAST MISSOURI...

CITY           SKY/WX    TMP DP  RH WIND       PRES   REMARKS
CAPE GIRARDEAU SUNNY     81  74  79 CALM      30.15R
FARMINGTON     SUNNY     77  73  87 CALM      30.19R
POPLAR BLUFF   SUNNY     80  75  84 NE7       30.14R
WEST PLAINS    SUNNY     79  71  76 CALM      30.20R

$$




USA.gov is the U.S. government's official web portal to all federal, state and local government web resources and services.